GW1851 Weather Reports


Display with metric or nautical units.
time (UTC)temp
F
wind
direction
speed
MPH
gust
MPH
rain 1hr
in
rain 24hr
in
rain mn
in
humidity
%
barometer
mb
20260903071842 80 214 0.0 0.0 0.00 0.00 0.00 81 1014.4
20260903071338 79 212 0.0 0.0 0.00 0.00 0.00 82 1014.4
20260903070833 79 211 0.0 0.0 0.00 0.00 0.00 82 1014.3
20260903070328 79 214 0.0 0.0 0.00 0.00 0.00 83 1014.3
20260903065827 79 216 0.0 0.0 0.00 0.00 0.00 83 1014.4
20260903065322 80 215 0.0 0.0 0.00 0.00 0.00 81 1014.4
20260903064821 80 205 0.0 0.0 0.00 0.00 0.00 81 1014.2
20260903064317 80 215 0.0 0.0 0.00 0.00 0.00 81 1014.4
20260903063812 80 198 0.0 0.0 0.00 0.00 0.00 81 1014.4
20260903063306 80 212 0.0 0.0 0.00 0.00 0.00 81 1014.3
20260903062757 80 212 0.0 0.0 0.00 0.00 0.00 82 1014.5
20260903062256 80 213 0.0 0.0 0.00 0.00 0.00 82 1014.6
20260903061753 80 214 0.0 0.0 0.00 0.00 0.00 82 1014.4
20260903061252 80 208 0.0 0.0 0.00 0.00 0.00 83 1014.3
20260903060747 79 212 0.0 0.0 0.00 0.00 0.00 83 1014.4
20260903060242 79 213 0.0 0.0 0.00 0.00 0.00 84 1014.4
20260903055739 79 218 0.0 0.0 0.00 0.00 0.00 86 1014.5
20260903055238 78 214 0.0 0.0 0.00 0.00 0.00 87 1014.4
20260903054733 78 215 0.0 0.0 0.00 0.00 0.00 90 1014.2
20260903054228 79 215 0.0 0.0 0.00 0.00 0.00 89 1014.3
20260903053724 79 215 0.0 0.0 0.00 0.00 0.00 88 1014.2
20260903053219 80 215 0.0 0.0 0.00 0.00 0.00 87 1014.3
20260903052714 80 215 0.0 0.0 0.00 0.00 0.00 86 1014.4
20260903052210 81 214 0.0 0.0 0.00 0.00 0.00 84 1014.4
20260903051705 81 214 0.0 0.0 0.00 0.00 0.00 83 1014.3
20260903051201 81 212 0.0 0.0 0.00 0.00 0.00 83 1014.4
20260903050656 81 215 0.0 0.0 0.00 0.00 0.00 83 1014.3
20260903050154 81 207 0.0 0.0 0.00 0.00 0.00 84 1014.2
20260903045649 81 213 0.0 0.0 0.00 0.00 0.00 84 1014.2
20260903045140 81 209 0.0 0.0 0.00 0.00 0.00 85 1014.3
20260903044635 81 216 0.0 0.0 0.00 0.00 0.00 85 1014.2
20260903044126 82 216 0.0 0.0 0.00 0.00 0.00 84 1014.1
20260903043622 82 218 0.0 0.0 0.00 0.00 0.00 84 1014.0
20260903043121 82 216 0.0 0.0 0.00 0.00 0.00 83 1014.2
20260903042621 82 209 0.0 0.0 0.00 0.00 0.00 83 1014.2
20260903042116 82 214 0.0 0.0 0.00 0.00 0.00 82 1014.0
20260903041612 83 212 0.0 1.0 0.00 0.00 0.00 82 1014.0
20260903041108 83 215 0.0 0.0 0.00 0.00 0.00 81 1014.1
20260903040607 83 221 1.0 2.0 0.00 0.00 0.00 81 1014.0
20260903040104 83 214 0.0 0.0 0.00 0.00 0.00 81 1014.1
20260903035558 83 218 0.0 1.0 0.00 0.00 0.00 80 1014.1
20260903035054 83 212 0.0 0.0 0.00 0.00 0.00 81 1014.1
20260903034549 83 214 0.0 0.0 0.00 0.00 0.00 81 1013.8
20260903034044 83 215 0.0 0.0 0.00 0.00 0.00 81 1013.9
20260903033539 83 216 0.0 0.0 0.00 0.00 0.00 80 1013.9
20260903033034 83 218 0.0 0.0 0.00 0.00 0.00 81 1014.1
20260903032529 83 214 0.0 0.0 0.00 0.00 0.00 81 1013.9
20260903032025 83 215 0.0 0.0 0.00 0.00 0.00 81 1013.9
20260903031524 83 215 0.0 0.0 0.00 0.00 0.00 80 1014.1
20260903031020 83 211 0.0 1.0 0.00 0.00 0.00 80 1014.1
20260903030515 83 214 0.0 1.0 0.00 0.00 0.00 80 1014.1
20260903030011 83 205 0.0 0.0 0.00 0.00 0.00 80 1014.1
20260903025507 83 211 0.0 0.0 0.00 0.00 0.00 81 1014.0
20260903025002 82 215 0.0 0.0 0.00 0.00 0.00 82 1013.9
20260903024501 82 210 0.0 0.0 0.00 0.00 0.00 84 1014.0
20260903023955 81 213 0.0 0.0 0.00 0.00 0.00 86 1014.1
20260903023451 81 213 0.0 0.0 0.00 0.00 0.00 86 1013.9
20260903022946 81 217 0.0 0.0 0.00 0.00 0.00 89 1013.9
20260903022445 80 216 0.0 0.0 0.00 0.00 0.00 90 1014.0
20260903021943 81 216 0.0 0.0 0.00 0.00 0.00 91 1014.0
20260903021439 80 216 0.0 0.0 0.00 0.00 0.00 92 1013.8
20260903020935 80 216 0.0 0.0 0.00 0.00 0.00 93 1014.0
20260903020430 81 216 0.0 0.0 0.00 0.00 0.00 93 1014.0
20260903015925 81 216 0.0 0.0 0.00 0.00 0.00 93 1013.8
20260903015420 81 216 0.0 0.0 0.00 0.00 0.00 93 1013.9
20260903014915 81 216 0.0 0.0 0.00 0.00 0.00 92 1013.6
20260903014409 82 216 0.0 0.0 0.00 0.00 0.00 92 1013.8
20260903013904 82 216 0.0 0.0 0.00 0.00 0.00 91 1013.7
20260903013404 82 216 0.0 0.0 0.00 0.00 0.00 91 1013.7
20260903012903 82 216 0.0 0.0 0.00 0.00 0.00 91 1013.6
20260903012403 82 216 0.0 0.0 0.00 0.00 0.00 91 1013.4
20260903011901 82 216 0.0 0.0 0.00 0.00 0.00 90 1013.7
20260903011356 83 216 0.0 0.0 0.00 0.00 0.00 90 1013.7
20260903010852 83 216 0.0 0.0 0.00 0.00 0.00 90 1013.4
20260903010347 83 216 0.0 0.0 0.00 0.00 0.00 90 1013.5
20260903005844 84 216 0.0 0.0 0.00 0.00 0.00 89 1013.4
20260903005335 84 216 0.0 0.0 0.00 0.00 0.00 89 1013.5
20260903004831 84 216 0.0 0.0 0.00 0.00 0.00 88 1013.6
20260903004326 85 216 0.0 0.0 0.00 0.00 0.00 88 1013.4
20260903003821 85 216 0.0 0.0 0.00 0.00 0.00 87 1013.5
20260903003316 85 216 0.0 0.0 0.00 0.00 0.00 87 1013.7
20260903002816 86 216 0.0 0.0 0.00 0.00 0.00 86 1013.6
20260903002315 86 216 0.0 0.0 0.00 0.00 0.00 84 1013.5
20260903001810 87 216 0.0 0.0 0.00 0.00 0.00 83 1013.6
20260903001305 88 216 0.0 0.0 0.00 0.00 0.00 82 1013.5
20260903000800 88 216 0.0 0.0 0.00 0.00 0.00 80 1013.2
20260903000255 89 216 0.0 0.0 0.00 0.00 0.00 78 1013.7
20260902235753 89 216 0.0 0.0 0.00 0.00 0.00 78 1013.2
20260902235248 90 216 0.0 0.0 0.00 0.00 0.00 75 1013.6
20260902234748 90 216 0.0 0.0 0.00 0.00 0.00 74 1013.7
20260902234242 91 216 0.0 0.0 0.00 0.00 0.00 73 1013.3
20260902233742 91 216 0.0 0.0 0.00 0.00 0.00 72 1013.7
20260902233236 91 215 0.0 1.0 0.00 0.00 0.00 71 1013.7
20260902232734 91 218 0.0 1.0 0.00 0.00 0.00 72 1013.7
20260902232228 91 218 0.0 0.0 0.00 0.00 0.00 72 1013.6
20260902231723 91 212 0.0 0.0 0.00 0.00 0.00 72 1013.7
20260902231218 91 215 1.0 1.0 0.00 0.00 0.00 71 1013.9
20260902230713 92 219 0.0 0.0 0.00 0.00 0.00 70 1013.8
20260902230212 92 219 0.0 0.0 0.00 0.00 0.00 70 1013.7
20260902225706 92 213 0.0 1.0 0.00 0.00 0.00 68 1013.7
20260902225201 92 224 1.0 1.0 0.00 0.00 0.00 69 1013.8
20260902224659 92 221 0.0 1.0 0.00 0.00 0.00 71 1013.7
20260902224155 92 221 0.0 1.0 0.00 0.00 0.00 70 1013.7
20260902223651 93 220 1.0 1.0 0.00 0.00 0.00 67 1013.7
20260902223150 94 214 1.0 2.0 0.00 0.00 0.00 66 1013.9
20260902222649 94 220 0.0 0.0 0.00 0.00 0.00 62 1014.0
20260902222148 94 228 1.0 2.0 0.00 0.00 0.00 62 1013.9
20260902221643 94 230 2.0 2.0 0.00 0.00 0.00 61 1013.9
20260902221138 94 229 2.0 2.0 0.00 0.00 0.00 61 1014.0
20260902220633 94 225 0.0 0.0 0.00 0.00 0.00 63 1014.0
20260902220133 94 223 0.0 0.0 0.00 0.00 0.00 63 1013.9
20260902215629 95 220 0.0 1.0 0.00 0.00 0.00 62 1014.0
20260902215124 95 239 2.0 2.0 0.00 0.00 0.00 62 1014.1
20260902214620 95 206 0.0 0.0 0.00 0.00 0.00 60 1013.8
20260902214118 95 217 0.0 0.0 0.00 0.00 0.00 63 1014.1
20260902213615 95 204 0.0 0.0 0.00 0.00 0.00 59 1014.0
20260902213113 95 215 0.0 0.0 0.00 0.00 0.00 58 1013.9
20260902212609 95 230 1.0 2.0 0.00 0.00 0.00 60 1014.3
20260902212105 95 214 1.0 1.0 0.00 0.00 0.00 60 1013.9
20260902211601 95 223 0.0 1.0 0.00 0.00 0.00 59 1014.2
20260902211056 96 217 0.0 1.0 0.00 0.00 0.00 58 1014.3
20260902210555 96 217 1.0 2.0 0.00 0.00 0.00 59 1014.4
20260902210050 96 175 3.0 3.0 0.00 0.00 0.00 56 1014.4
20260902205549 96 221 2.0 2.0 0.00 0.00 0.00 57 1014.2
20260902205044 97 222 0.0 0.0 0.00 0.00 0.00 56 1014.2
20260902204539 97 229 3.0 3.0 0.00 0.00 0.00 56 1014.4
20260902204034 96 211 1.0 1.0 0.00 0.00 0.00 57 1014.3
20260902203529 97 220 1.0 1.0 0.00 0.00 0.00 56 1014.4
20260902203028 96 217 1.0 1.0 0.00 0.00 0.00 57 1014.4
20260902202524 97 237 3.0 3.0 0.00 0.00 0.00 58 1014.4
20260902202020 96 222 1.0 2.0 0.00 0.00 0.00 57 1014.4
20260902201515 97 226 1.0 1.0 0.00 0.00 0.00 58 1014.4
20260902201009 97 236 1.0 2.0 0.00 0.00 0.00 55 1014.5
20260902200505 97 226 1.0 1.0 0.00 0.00 0.00 57 1014.4
20260902200001 98 228 1.0 1.0 0.00 0.00 0.00 55 1014.8
20260902195456 97 215 0.0 0.0 0.00 0.00 0.00 60 1014.7
20260902194950 97 239 2.0 2.0 0.00 0.00 0.00 59 1015.0
20260902194449 97 215 1.0 1.0 0.00 0.00 0.00 59 1014.8
20260902193945 97 237 2.0 2.0 0.00 0.00 0.00 60 1015.0
20260902193440 96 244 2.0 2.0 0.00 0.00 0.00 62 1015.3
20260902192939 96 237 3.0 3.0 0.00 0.00 0.00 59 1015.0
20260902192438 97 229 1.0 1.0 0.00 0.00 0.00 57 1015.0
20260902191937 97 203 1.0 1.0 0.00 0.00 0.00 62 1015.2
20260902191432 96 219 1.0 1.0 0.00 0.00 0.00 60 1015.1
20260902190928 95 220 1.0 1.0 0.00 0.00 0.00 65 1015.2
20260902190423 95 235 2.0 2.0 0.00 0.00 0.00 62 1015.2
20260902185918 96 235 3.0 3.0 0.00 0.00 0.00 62 1015.4
20260902185415 94 244 0.0 0.0 0.00 0.00 0.00 62 1015.2
20260902184909 95 242 3.0 5.0 0.00 0.00 0.00 62 1015.6
20260902184404 96 241 3.0 3.0 0.00 0.00 0.00 61 1015.3
20260902183900 95 213 1.0 2.0 0.00 0.00 0.00 61 1015.3
20260902183356 94 238 2.0 2.0 0.00 0.00 0.00 63 1015.5
20260902182852 94 215 1.0 2.0 0.00 0.00 0.00 66 1015.5
20260902182348 94 216 2.0 2.0 0.00 0.00 0.00 65 1015.4
20260902181844 94 221 0.0 0.0 0.00 0.00 0.00 63 1015.4
20260902181340 94 234 1.0 2.0 0.00 0.00 0.00 61 1015.7
20260902180838 94 227 1.0 1.0 0.00 0.00 0.00 62 1015.6
20260902180335 94 226 0.0 1.0 0.00 0.00 0.00 62 1015.8
20260902175824 94 215 1.0 1.0 0.00 0.00 0.00 65 1015.7
20260902175319 93 218 1.0 1.0 0.00 0.00 0.00 64 1015.7
20260902174815 93 215 1.0 1.0 0.00 0.00 0.00 65 1015.7
20260902174312 94 231 1.0 1.0 0.00 0.00 0.00 64 1015.6
20260902173807 94 208 1.0 2.0 0.00 0.00 0.00 63 1015.8
20260902173301 93 233 2.0 2.0 0.00 0.00 0.00 64 1015.9
20260902172756 93 215 1.0 1.0 0.00 0.00 0.00 63 1016.2
20260902172255 93 212 1.0 2.0 0.00 0.00 0.00 64 1016.1
20260902171750 93 234 2.0 2.0 0.00 0.00 0.00 67 1016.0
20260902171246 92 220 0.0 1.0 0.00 0.00 0.00 67 1015.9
20260902170742 93 230 3.0 5.0 0.00 0.00 0.00 65 1016.2
20260902170237 92 280 2.0 2.0 0.00 0.00 0.00 65 1016.0
20260902165732 92 208 1.0 2.0 0.00 0.00 0.00 69 1016.4
20260902165227 92 258 4.0 5.0 0.00 0.00 0.00 64 1016.2
20260902164726 91 201 2.0 3.0 0.00 0.00 0.00 64 1016.3
20260902164221 92 221 2.0 2.0 0.00 0.00 0.00 68 1016.3
20260902163716 92 223 1.0 1.0 0.00 0.00 0.00 67 1016.1
20260902163216 92 220 1.0 2.0 0.00 0.00 0.00 66 1016.2
20260902162714 92 233 3.0 3.0 0.00 0.00 0.00 65 1016.2
20260902162209 91 223 0.0 1.0 0.00 0.00 0.00 69 1016.1
20260902161704 91 212 0.0 0.0 0.00 0.00 0.00 70 1016.5
20260902161159 90 227 2.0 2.0 0.00 0.00 0.00 68 1016.2
20260902160656 90 247 3.0 3.0 0.00 0.00 0.00 67 1016.2
20260902160150 90 222 2.0 3.0 0.00 0.00 0.00 66 1016.5
20260902155649 90 220 1.0 1.0 0.00 0.00 0.00 68 1016.2
20260902155148 90 245 1.0 2.0 0.00 0.00 0.00 67 1016.2
20260902154643 90 228 3.0 3.0 0.00 0.00 0.00 69 1016.1
20260902154137 90 206 2.0 3.0 0.00 0.00 0.00 67 1016.2
20260902153637 90 227 1.0 1.0 0.00 0.00 0.00 69 1016.2
20260902153132 89 215 2.0 3.0 0.00 0.00 0.00 69 1016.1
20260902152628 89 233 1.0 2.0 0.00 0.00 0.00 69 1016.2
20260902152129 89 212 1.0 2.0 0.00 0.00 0.00 71 1016.1
20260902151624 89 220 1.0 1.0 0.00 0.00 0.00 69 1015.9
20260902151119 88 238 2.0 2.0 0.00 0.00 0.00 69 1015.9
20260902150614 88 212 1.0 2.0 0.00 0.00 0.00 69 1015.9
20260902150109 87 95 2.0 3.0 0.00 0.00 0.00 68 1015.9
20260902145604 88 251 2.0 3.0 0.00 0.00 0.00 69 1015.7
20260902145103 87 237 1.0 2.0 0.00 0.00 0.00 70 1015.7
20260902144600 87 188 0.0 1.0 0.00 0.00 0.00 72 1015.8
20260902144054 87 228 1.0 1.0 0.00 0.00 0.00 72 1015.7
20260902143549 86 237 2.0 2.0 0.00 0.00 0.00 72 1015.9
20260902143045 86 234 3.0 3.0 0.00 0.00 0.00 73 1016.0
20260902142535 86 229 2.0 2.0 0.00 0.00 0.00 74 1015.8
20260902142030 85 236 2.0 2.0 0.00 0.00 0.00 73 1015.9
20260902141530 85 207 1.0 1.0 0.00 0.00 0.00 74 1015.8
20260902141025 85 223 3.0 3.0 0.00 0.00 0.00 74 1015.9
20260902140519 85 228 0.0 1.0 0.00 0.00 0.00 75 1015.9
20260902140015 84 227 1.0 1.0 0.00 0.00 0.00 74 1015.9
20260902135509 84 259 1.0 1.0 0.00 0.00 0.00 76 1015.7
20260902135004 84 236 0.0 1.0 0.00 0.00 0.00 77 1015.6
20260902134500 83 233 2.0 2.0 0.00 0.00 0.00 77 1016.0
20260902133959 83 205 0.0 0.0 0.00 0.00 0.00 77 1015.8
20260902133454 82 220 1.0 1.0 0.00 0.00 0.00 79 1015.9
20260902132949 81 212 1.0 1.0 0.00 0.00 0.00 81 1016.1
20260902132445 81 199 0.0 1.0 0.00 0.00 0.00 82 1016.1
20260902131945 80 211 0.0 0.0 0.00 0.00 0.00 83 1016.1
20260902131442 79 216 0.0 0.0 0.00 0.00 0.00 85 1016.0
20260902130941 79 215 0.0 0.0 0.00 0.00 0.00 86 1016.1
20260902130438 78 216 0.0 0.0 0.00 0.00 0.00 87 1016.1
20260902125938 78 216 0.0 0.0 0.00 0.00 0.00 86 1016.1
20260902125434 77 215 0.0 0.0 0.00 0.00 0.00 87 1015.9
20260902124929 77 211 0.0 0.0 0.00 0.00 0.00 88 1016.0
20260902124425 77 211 0.0 0.0 0.00 0.00 0.00 89 1016.1
20260902123920 76 207 0.0 0.0 0.00 0.00 0.00 89 1015.8
20260902123417 76 207 0.0 0.0 0.00 0.00 0.00 89 1016.0
20260902122915 76 209 0.0 0.0 0.00 0.00 0.00 89 1016.1
20260902122411 76 209 0.0 0.0 0.00 0.00 0.00 89 1015.8
20260902121906 75 209 0.0 0.0 0.00 0.00 0.00 90 1016.1
20260902121401 75 209 0.0 0.0 0.00 0.00 0.00 91 1016.0
20260902120856 75 213 0.0 0.0 0.00 0.00 0.00 91 1015.8
20260902120352 75 213 0.0 0.0 0.00 0.00 0.00 92 1015.8
20260902115846 74 213 0.0 0.0 0.00 0.00 0.00 92 1016.0
20260902115343 74 213 0.0 0.0 0.00 0.00 0.00 92 1015.7
20260902114839 74 213 0.0 0.0 0.00 0.00 0.00 92 1015.7
20260902114335 74 213 0.0 0.0 0.00 0.00 0.00 92 1015.8
20260902113834 74 213 0.0 0.0 0.00 0.00 0.00 92 1015.7
20260902113330 74 213 0.0 0.0 0.00 0.00 0.00 92 1016.0
20260902112829 74 213 0.0 0.0 0.00 0.00 0.00 92 1015.6
20260902112326 74 213 0.0 0.0 0.00 0.00 0.00 92 1015.6
20260902111821 74 213 0.0 0.0 0.00 0.00 0.00 92 1015.8
20260902111318 74 213 0.0 0.0 0.00 0.00 0.00 92 1015.8
20260902110813 74 212 0.0 0.0 0.00 0.00 0.00 92 1015.8
20260902110309 74 212 0.0 0.0 0.00 0.00 0.00 91 1015.6
20260902105809 74 213 0.0 0.0 0.00 0.00 0.00 91 1015.5
20260902105306 74 218 0.0 0.0 0.00 0.00 0.00 92 1015.7
20260902104759 74 218 0.0 0.0 0.00 0.00 0.00 92 1015.6
20260902104255 74 218 0.0 0.0 0.00 0.00 0.00 92 1015.5
20260902103754 74 218 0.0 0.0 0.00 0.00 0.00 92 1015.6
20260902103249 74 218 0.0 0.0 0.00 0.00 0.00 91 1015.5
20260902102744 74 218 0.0 0.0 0.00 0.00 0.00 92 1015.6
20260902102242 74 218 0.0 0.0 0.00 0.00 0.00 92 1015.6
20260902101737 74 218 0.0 0.0 0.00 0.00 0.00 91 1015.4
20260902101232 74 218 0.0 0.0 0.00 0.00 0.00 91 1015.4
20260902100731 75 218 0.0 0.0 0.00 0.00 0.00 91 1015.4
20260902100226 75 218 0.0 0.0 0.00 0.00 0.00 90 1015.4
20260902095726 74 218 0.0 0.0 0.00 0.00 0.00 90 1015.4
20260902095220 75 218 0.0 0.0 0.00 0.00 0.00 90 1015.6
20260902094715 75 218 0.0 0.0 0.00 0.00 0.00 90 1015.7
20260902094211 75 218 0.0 0.0 0.00 0.00 0.00 89 1015.6
20260902093710 75 218 0.0 0.0 0.00 0.00 0.00 88 1015.7
20260902093205 75 218 0.0 0.0 0.00 0.00 0.00 88 1015.6
20260902092700 76 218 0.0 0.0 0.00 0.00 0.00 87 1015.7
20260902092155 76 218 0.0 0.0 0.00 0.00 0.00 86 1015.4
20260902091655 76 218 0.0 0.0 0.00 0.00 0.00 86 1015.4
20260902091152 77 217 0.0 0.0 0.00 0.00 0.00 85 1015.3
20260902090647 77 219 0.0 1.0 0.00 0.00 0.00 84 1015.1
20260902090147 77 218 0.0 0.0 0.00 0.00 0.00 83 1015.2
20260902085641 78 215 0.0 1.0 0.00 0.00 0.00 83 1015.0
20260902085136 78 215 0.0 0.0 0.00 0.00 0.00 82 1015.0
20260902084632 78 218 0.0 0.0 0.00 0.00 0.00 82 1015.1
20260902084127 78 216 0.0 0.0 0.00 0.00 0.00 82 1015.0
20260902083623 78 218 0.0 0.0 0.00 0.00 0.00 81 1014.7
20260902083122 78 215 0.0 0.0 0.00 0.00 0.00 81 1014.7
20260902082618 79 212 0.0 0.0 0.00 0.00 0.00 80 1014.8
20260902082114 79 211 0.0 1.0 0.00 0.00 0.00 80 1015.0
20260902081610 79 208 0.0 0.0 0.00 0.00 0.00 80 1015.0
20260902081105 79 210 0.0 0.0 0.00 0.00 0.00 80 1014.7
20260902080600 79 214 0.0 0.0 0.00 0.00 0.00 80 1015.0
20260902080057 79 216 0.0 0.0 0.00 0.00 0.00 80 1015.1
20260902075556 79 213 0.0 0.0 0.00 0.00 0.00 81 1015.0
20260902075052 79 214 0.0 0.0 0.00 0.00 0.00 80 1015.0
20260902074548 79 203 0.0 0.0 0.00 0.00 0.00 80 1014.7
20260902074043 79 210 0.0 0.0 0.00 0.00 0.00 80 1014.8
20260902073538 79 205 0.0 0.0 0.00 0.00 0.00 79 1015.0
20260902073035 79 213 0.0 0.0 0.00 0.00 0.00 79 1015.2
20260902072530 79 215 0.0 0.0 0.00 0.00 0.00 80 1015.2